TimeEST,TemperatureF,Dew PointF,Humidity,Sea Level PressureIn,VisibilityMPH,Wind Direction,Wind SpeedMPH,Gust SpeedMPH,PrecipitationIn,Events,Conditions,WindDirDegrees,DateUTC
12:54 AM,32.0,19.0,59,30.28,-9999.0,WSW,9.2,-,N/A,,Unknown,240,2012-12-14 05:54:00
1:54 AM,30.0,19.9,66,30.28,-9999.0,WSW,9.2,-,N/A,,Unknown,240,2012-12-14 06:54:00
2:54 AM,30.0,21.0,69,30.27,-9999.0,West,12.7,-,N/A,,Unknown,260,2012-12-14 07:54:00
3:54 AM,30.9,21.0,67,30.25,-9999.0,WSW,10.4,-,N/A,,Unknown,250,2012-12-14 08:54:00
4:54 AM,30.9,21.0,67,30.25,-9999.0,WSW,11.5,-,N/A,,Unknown,240,2012-12-14 09:54:00
5:54 AM,30.9,21.9,69,30.24,-9999.0,WSW,15.0,-,N/A,,Unknown,240,2012-12-14 10:54:00
6:54 AM,32.0,21.9,66,30.23,-9999.0,SW,13.8,-,N/A,,Unknown,230,2012-12-14 11:54:00
7:54 AM,32.0,21.9,66,30.22,-9999.0,SW,12.7,-,N/A,,Unknown,220,2012-12-14 12:54:00
8:54 AM,34.0,23.0,64,30.22,-9999.0,SW,11.5,-,N/A,,Unknown,220,2012-12-14 13:54:00
9:54 AM,37.0,23.0,57,30.21,-9999.0,WSW,9.2,-,N/A,,Unknown,240,2012-12-14 14:54:00
10:54 AM,41.0,23.0,49,30.17,-9999.0,SW,10.4,-,N/A,,Unknown,230,2012-12-14 15:54:00
11:54 AM,44.1,21.0,40,30.13,-9999.0,WSW,12.7,18.4,N/A,,Unknown,250,2012-12-14 16:54:00
12:54 PM,46.0,19.9,35,30.10,-9999.0,SW,11.5,-,N/A,,Unknown,220,2012-12-14 17:54:00
1:54 PM,46.9,19.9,34,30.07,-9999.0,SW,9.2,18.4,N/A,,Unknown,230,2012-12-14 18:54:00
2:54 PM,46.0,19.0,34,30.09,-9999.0,West,11.5,19.6,N/A,,Unknown,260,2012-12-14 19:54:00
3:54 PM,43.0,18.0,37,30.11,-9999.0,WNW,13.8,26.5,N/A,,Unknown,290,2012-12-14 20:54:00
4:54 PM,41.0,19.9,43,30.12,-9999.0,West,11.5,-,N/A,,Unknown,280,2012-12-14 21:54:00
5:54 PM,37.9,21.9,53,30.14,-9999.0,WNW,13.8,-,N/A,,Unknown,290,2012-12-14 22:54:00
6:54 PM,36.0,23.0,59,30.16,-9999.0,WNW,10.4,-,N/A,,Unknown,300,2012-12-14 23:54:00
7:54 PM,36.0,24.1,62,30.17,-9999.0,WNW,12.7,-,N/A,,Unknown,290,2012-12-15 00:54:00
8:54 PM,35.1,25.0,67,30.18,-9999.0,WNW,11.5,-,N/A,,Unknown,290,2012-12-15 01:54:00
9:54 PM,35.1,25.0,67,30.17,-9999.0,West,13.8,-,N/A,,Unknown,280,2012-12-15 02:54:00
10:54 PM,34.0,25.0,70,30.18,-9999.0,West,12.7,-,N/A,,Unknown,280,2012-12-15 03:54:00
11:54 PM,33.1,25.0,72,30.17,-9999.0,West,11.5,-,N/A,,Unknown,280,2012-12-15 04:54:00